Flag for U.S.A. Weather past 2 weeks in Irving, Texas, U.S.A.

Now
85 °F

Passing clouds.


Feels Like: 91 °F
Forecast: 79 / 93 °F
Wind: 15 mph from South

Location: Dallas / Fort Worth International Airport

Current Time: Jul 5, 2015 at 11:06:23 AM

Latest Report: Jul 5, 2015 at 9:53 AM


Visibility: 10 mi

Pressure: 30.00 "Hg

Humidity: 65%

Dew point: 72 °F

Location of IrvingLocation

Historic Weather in Irving — Graph

°F

Irving temperature yesterday

Maximum temperature yesterday: 93 °F (at 3:53 PM)
Minimum temperature yesterday: 78 °F (at 6:53 AM)
Average temperature yesterday: 86 °F

Past Weeks' High & Low Weather Summary

 TemperatureHumidityPressure
High95 °F (Jun 24, 3:53 PM)94% (Jun 26, 8:04 PM)30.14 "Hg (Jun 26, 8:04 PM)
Low72 °F (Jun 30, 3:53 AM)29% (Jun 28, 6:53 PM)29.83 "Hg (Jul 2, 7:53 PM)
Average84 °F63%29.97 "Hg
* Reported Jun 20 9:53 AM — Jul 5 9:53 AM, Irving, Weather by CustomWeather, © 2015

Note: Actual official high and low records may vary slightly from our data, if they occured in-between our weather recording intervals... More about our weather records

Advertising

Irving weather history for previous 24 hours

 ConditionsComfort  
Time TempWeatherWind HumidityBarometerVisibility
9:53 AM
Sun, Jul 5
85 °FPassing clouds.15 mph65%30.00 "Hg10 mi
8:53 AM82 °FScattered clouds.17 mph72%30.00 "Hg10 mi
7:53 AM79 °FScattered clouds.14 mph82%29.99 "Hg10 mi
6:53 AM77 °FPartly cloudy.10 mph88%29.98 "Hg10 mi
5:53 AM78 °FPassing clouds.9 mph84%29.97 "Hg10 mi
4:53 AM79 °FPassing clouds.10 mph82%29.95 "Hg10 mi
3:53 AM80 °FPassing clouds.14 mph76%29.93 "Hg10 mi
2:53 AM81 °FPassing clouds.14 mph74%29.93 "Hg10 mi
1:53 AM82 °FPassing clouds.13 mph72%29.93 "Hg10 mi
12:53 AM82 °FPassing clouds.12 mph70%29.94 "Hg10 mi
11:53 PM
Sat, Jul 4
84 °FPassing clouds.13 mph63%29.93 "Hg10 mi
10:53 PM86 °FPassing clouds.15 mph59%29.93 "Hg10 mi
9:53 PM86 °FPassing clouds.8 mph59%29.90 "Hg10 mi
8:53 PM88 °FBroken clouds.9 mph54%29.86 "Hg10 mi
7:53 PM89 °FBroken clouds.12 mph52%29.85 "Hg10 mi
6:53 PM92 °FBroken clouds.10 mph44%29.86 "Hg10 mi
5:53 PM93 °FPartly sunny.14 mph42%29.85 "Hg10 mi
4:53 PM93 °FScattered clouds.8 mph44%29.88 "Hg10 mi
3:53 PM93 °FScattered clouds.14 mph47%29.89 "Hg10 mi
2:53 PM92 °FScattered clouds.7 mph47%29.90 "Hg10 mi
1:53 PM91 °FBroken clouds.13 mph52%29.92 "Hg10 mi
12:53 PM90 °FScattered clouds.15 mph54%29.93 "Hg10 mi
11:53 AM89 °FScattered clouds.10 mph55%29.95 "Hg10 mi
Weather by CustomWeather, © 2015

See weather overviewHow to use our weather pages